Hlavní strana
METAR-TAF:

METAR-TAF

Letiště :

Salem-Leckrone Airport

Salem, Illinois, Spojené státy americké

zeměpisná šířka: 38-38-34N, zeměpisná délka: 088-57-51W, výška: 175 m

Aktuální stav počasí

Zpráva byla vytvořena před 30 minutami, v 01:35 UTC
Severní vítr 15 kt
Teplota 3°C
Vlhkost vzduchu 100%
Tlak 1015 hPa
Viditelnost: 8.0 km
Zataženo ve výšce 600 ft
kouřmo

METAR: KSLO 260135Z AUTO 01015KT 5SM BR OVC006 03/03 A2997 RMK AO2 T00320026

Čas: 20:05 (02:05 UTC)


TAF: chybějící

Stav a předpovědi počasí z více než 4 000 letišť (zprávy METAR a TAF).

Červené a žluté tečky na mapě představují dostupné meteorologické stanice.

Když kurzor umístíte na tečku, zobrazí se název stanice.

Pak kliknutím zobrazíte stav a předpověď počasí.

Chcete-li změnit mapu, kliknutím na zelené tlačítko se znaménkem +mapu přiblížíte, kliknutím na zelené tlačítko se znaménkem – mapu oddálíte a kliknutím na zelené šipky přejdete na sousední mapy.


METAR-TAF: